Elmendorf AFB, AK

7:58 AM AKST on December 12, 2017 (GMT -0900)
Elmendorf Air Force Base

Weather History for PAED - January, 2014

Change the Weather History Date:

Friday, January 17, 2014

  Actual Average Record
Temperature  
Mean Temperature 38 °F -  
Max Temperature 48 °F 22 °F 48 °F (1992)
Min Temperature 27 °F 8 °F -25 °F (2004)
Degree Days  
Heating Degree Days 28    
Moisture  
Dew Point 31 °F    
Average Humidity 79    
Maximum Humidity 100    
Minimum Humidity 45    
Precipitation  
Precipitation 0.00 in - - ()
Snow  
Snow 0.00 in - - ()
Snow Depth 19.00 in    
Sea Level Pressure  
Sea Level Pressure 29.25 in    
Wind  
Wind Speed 9 mph (NW)    
Max Wind Speed 37 mph    
Max Gust Speed 67 mph    
Visibility 10 miles    
Events Rain    
Averages and records for this station are not official NWS values.
T = Trace of Precipitation, MM = Missing Value Source: NWS Daily Summary

Daily Weather History Graph

Daily Weather History Graph

Search for Another Location

Airport or City:

Trip Planner

Search our weather history database for the weather conditions in past years. The results will help you decide how hot, cold, wet, or windy it might be!

Date:

Astronomy

Jan. 17, 2014 Rise Set
Actual Time 9:52 AM AKST 4:26 PM AKST
Civil Twilight 8:57 AM AKST 5:21 PM AKST
Nautical Twilight 8:01 AM AKST 6:18 PM AKST
Astronomical Twilight 7:09 AM AKST 7:10 PM AKST
Moon 7:12 PM AKST (1/17) 9:41 AM AKST (1/17)
Length of Visible Light 8h 24m
Length of Day
6h 33m
Full, 98% of the Moon is Illuminated
Jan 17
Full
Jan 23
Last Quarter
Jan 30
New
Feb 6
First Quarter
Feb 14
Full

Hourly Weather History & Observations

Time (AKST) Temp. Windchill Dew Point Humidity Pressure Visibility Wind Dir Wind Speed Gust Speed Precip Events Conditions
12:08 AM 32.0 °F 25.6 °F 32.0 °F 100% 29.63 in 10.0 mi WNW 6.9 mph - N/A   Overcast
12:58 AM 30.9 °F 25.2 °F 30.9 °F 100% 29.57 in 10.0 mi NW 5.8 mph - N/A   Overcast
1:18 AM 32.0 °F 26.4 °F 32.0 °F 100% 29.56 in 10.0 mi WNW 5.8 mph - N/A   Overcast
1:38 AM 32.0 °F 26.4 °F 32.0 °F 100% 29.54 in 10.0 mi SW 5.8 mph - N/A   Overcast
1:58 AM 30.4 °F 23.6 °F 30.4 °F 100% 29.54 in 10.0 mi SSE 6.9 mph - N/A   Overcast
2:48 AM 30.2 °F - 30.2 °F 100% 29.53 in 10.0 mi Calm Calm - N/A   Overcast
2:58 AM 30.0 °F - 30.0 °F 100% 29.50 in 10.0 mi Calm Calm - N/A   Overcast
3:28 AM 28.4 °F - 28.4 °F 100% 29.50 in 10.0 mi Calm Calm - N/A   Overcast
3:58 AM 28.4 °F - 28.4 °F 100% 29.49 in 10.0 mi Calm Calm - N/A   Mostly Cloudy
4:58 AM 28.4 °F - 28.4 °F 100% 29.43 in 10.0 mi Calm Calm - N/A   Overcast
5:58 AM 27.1 °F - 27.0 °F 99% 29.38 in 10.0 mi Calm Calm - N/A   Overcast
6:58 AM 28.2 °F 23.1 °F 28.2 °F 100% 29.36 in 10.0 mi Variable 4.6 mph - N/A   Overcast
7:41 AM 28.4 °F - 28.4 °F 100% 29.32 in 10.0 mi Calm Calm - N/A   Overcast
7:42 AM 28.4 °F - 28.4 °F 100% 29.32 in 10.0 mi NNW 2.3 mph - N/A Rain Light Freezing Rain
7:52 AM 30.2 °F - 30.2 °F 100% 29.30 in 10.0 mi Calm Calm - N/A Rain Light Freezing Rain
7:58 AM 30.0 °F 23.2 °F 30.0 °F 100% 29.29 in 10.0 mi North 6.9 mph - 0.00 in Rain Light Freezing Rain
7:59 AM 30.2 °F 22.6 °F 30.2 °F 100% 29.30 in 10.0 mi WNW 8.1 mph - N/A Rain Light Freezing Rain
8:22 AM 32.0 °F 23.0 °F 32.0 °F 100% 29.25 in 10.0 mi SW 11.5 mph - N/A Rain Light Rain
8:35 AM 32.0 °F 24.2 °F 32.0 °F 100% 29.26 in 10.0 mi South 9.2 mph - N/A Rain Light Rain
8:58 AM 31.1 °F 21.9 °F 31.1 °F 100% 29.23 in 10.0 mi West 11.5 mph - 0.00 in   Overcast
9:27 AM 32.0 °F 22.5 °F 32.0 °F 100% 29.23 in 10.0 mi South 12.7 mph - N/A   Mostly Cloudy
10:08 AM 32.0 °F 23.6 °F 32.0 °F 100% 29.24 in 10.0 mi South 10.4 mph - N/A   Light Drizzle
10:58 AM 35.8 °F - 35.8 °F 100% 29.24 in 10.0 mi Calm Calm - 0.00 in Rain Light Rain
11:58 AM 34.5 °F 27.9 °F 34.5 °F 100% 29.21 in 9.0 mi NE 8.1 mph - 0.00 in Rain Light Rain
12:02 PM 35.6 °F 27.1 °F 35.6 °F 100% 29.23 in 10.0 mi ESE 12.7 mph - N/A Rain Light Rain
12:32 PM 37.4 °F 33.8 °F 37.4 °F 100% 29.23 in 9.0 mi West 4.6 mph - N/A Rain Light Rain
12:42 PM 39.2 °F 37.0 °F 35.6 °F 87% 29.23 in 10.0 mi Variable 3.5 mph - N/A Rain Light Rain
12:58 PM 40.3 °F 32.2 °F 36.1 °F 85% 29.20 in 8.0 mi NNW 15.0 mph 23.0 mph 0.00 in Rain Light Rain
1:08 PM 42.8 °F 37.0 °F 35.6 °F 76% 29.23 in 10.0 mi NNE 10.4 mph - N/A Rain Light Rain
1:58 PM 45.3 °F 37.8 °F 32.0 °F 60% 29.19 in 10.0 mi North 18.4 mph 40.3 mph 0.00 in Rain Light Rain
2:08 PM 46.4 °F 39.0 °F 32.0 °F 57% 29.21 in 10.0 mi NE 19.6 mph 26.5 mph N/A Rain Light Rain
2:22 PM 46.4 °F 38.3 °F 32.0 °F 57% 29.21 in 10.0 mi North 23.0 mph 31.1 mph N/A Rain Light Rain
2:47 PM 44.6 °F 37.4 °F 32.0 °F 61% 29.20 in 10.0 mi NNW 16.1 mph 38.0 mph N/A Rain Light Rain
2:58 PM 43.9 °F 35.9 °F 32.5 °F 64% 29.19 in 10.0 mi NNW 18.4 mph 24.2 mph 0.00 in   Light Drizzle
3:02 PM 42.8 °F 33.5 °F 32.0 °F 66% 29.20 in 10.0 mi North 23.0 mph 36.8 mph N/A   Light Drizzle
3:12 PM 44.6 °F 35.9 °F 32.0 °F 61% 29.17 in 10.0 mi NNW 23.0 mph 38.0 mph N/A   Overcast
3:13 PM 44.6 °F 35.9 °F 32.0 °F 61% 29.17 in 10.0 mi North 23.0 mph 38.0 mph N/A   Overcast
3:14 PM 44.6 °F 37.2 °F 32.0 °F 61% 29.18 in 10.0 mi North 17.3 mph 38.0 mph N/A   Overcast
3:15 PM 44.6 °F 36.9 °F 32.0 °F 61% 29.18 in 10.0 mi WNW 18.4 mph 40.3 mph N/A   Overcast
3:17 PM 46.4 °F 39.8 °F 32.0 °F 57% 29.18 in 10.0 mi NNW 16.1 mph 40.3 mph N/A   Mostly Cloudy
3:25 PM 46.4 °F 36.5 °F 32.0 °F 57% 29.15 in 10.0 mi North 34.5 mph 44.9 mph N/A   Mostly Cloudy
3:29 PM 46.4 °F 38.3 °F 30.2 °F 53% 29.17 in 10.0 mi North 23.0 mph 47.2 mph N/A   Overcast
3:43 PM 48.2 °F - 28.4 °F 46% 29.16 in 10.0 mi NNW 36.8 mph 66.7 mph N/A   Overcast
3:58 PM 47.8 °F - 28.0 °F 46% 29.15 in 10.0 mi North 28.8 mph 52.9 mph 0.00 in   Overcast
4:04 PM 48.2 °F - 28.4 °F 46% 29.16 in 10.0 mi NNE 18.4 mph 52.9 mph N/A   Overcast
4:10 PM 48.2 °F - 28.4 °F 46% 29.16 in 10.0 mi NW 12.7 mph 36.8 mph N/A   Overcast
4:15 PM 48.2 °F - 28.4 °F 46% 29.16 in 10.0 mi West 11.5 mph 23.0 mph N/A   Overcast
4:27 PM 46.4 °F 40.4 °F 28.4 °F 50% 29.15 in 10.0 mi NNW 13.8 mph 47.2 mph N/A   Overcast
4:41 PM 46.4 °F 40.4 °F 28.4 °F 50% 29.14 in 10.0 mi NW 13.8 mph 32.2 mph N/A   Overcast
4:58 PM 48.0 °F - 27.5 °F 45% 29.14 in 10.0 mi North 19.6 mph 21.9 mph N/A   Overcast
4:59 PM 48.2 °F - 28.4 °F 46% 29.15 in 10.0 mi NNE 16.1 mph 23.0 mph N/A   Overcast
5:58 PM 42.1 °F 34.9 °F 30.2 °F 63% 29.12 in 10.0 mi South 13.8 mph - N/A   Overcast
6:58 PM 39.7 °F 32.7 °F 31.6 °F 73% 29.11 in 10.0 mi SSW 11.5 mph - N/A   Overcast
7:09 PM 39.2 °F 30.2 °F 32.0 °F 75% 29.12 in 10.0 mi South 17.3 mph - N/A   Overcast
7:58 PM 38.8 °F 32.6 °F 32.0 °F 76% 29.11 in 10.0 mi SSW 9.2 mph - N/A   Overcast
8:58 PM 38.3 °F 33.2 °F 31.6 °F 77% 29.11 in 10.0 mi SSW 6.9 mph - N/A   Scattered Clouds
9:58 PM 37.2 °F 29.6 °F 31.8 °F 81% 29.07 in 10.0 mi WSW 11.5 mph - N/A   Overcast
10:09 PM 37.4 °F 29.8 °F 32.0 °F 81% 29.09 in 10.0 mi South 11.5 mph - N/A   Overcast
10:58 PM 37.4 °F 32.8 °F 32.0 °F 81% 29.09 in 10.0 mi SSW 5.8 mph - N/A   Overcast
11:58 PM 37.4 °F 32.8 °F 32.0 °F 81% 29.06 in 10.0 mi SSW 5.8 mph - N/A   Overcast